Wetbulb
50.22 50.16 50.17 49.98 49.75 49.05 48.36 43.01 34.27 48.56 50.95 36.13 37.84 36.30 41.90 43.08 44.55 48.63 47.17 47.47 46.51 44.26 43.89 41.39 42.22 43.00 45.75 49.34 49.73 45.39 48.67 45.89 41.44 43.47 47.97 48.86 47.94 46.09 46.28 40.51 38.46 41.10 39.87 40.17
49.95 49.96 50.08 49.87 49.47 49.14 46.49 37.61 39.04 48.24 47.68 30.40 32.64 39.43 40.78 43.38 43.70 44.89 45.99 45.26 47.57 48.00 44.84 40.87 44.06 45.00 49.26 49.26 48.89 46.96 48.35 44.12 39.07 40.36 43.78 46.62 44.98 46.54 46.53 45.74 43.75 40.55 38.48 41.00
49.92 49.93 49.93 49.80 49.34 49.09 46.61 38.67 32.43 39.86 41.01 42.66 37.67 36.62 38.70 38.63 44.84 44.39 47.01 46.34 47.63 46.68 44.53 45.96 42.90 44.34 46.56 48.62 49.49 47.08 49.01 45.91 42.32 38.03 41.38 44.86 42.76 44.67 46.10 45.30 41.09 41.35 41.95 43.54
48.52 49.62 49.93 49.77 49.11 48.84 45.89 39.16 35.60 38.76 32.71 35.63 38.87 39.84 39.31 38.08 38.75 44.56 46.54 45.29 45.80 45.26 41.70 43.11 42.68 44.17 45.79 46.78 46.21 48.48 48.73 42.74 44.54 44.36 44.64 44.68 44.07 43.80 45.24 43.95 44.91 41.77 43.88 43.87
47.74 48.38 49.32 49.51 48.95 48.55 42.62 35.20 38.58 42.16 38.38 38.65 37.53 39.13 37.64 37.94 40.23 41.86 41.17 42.80 45.52 46.09 43.34 43.71 42.15 44.40 45.10 45.55 47.53 47.40 48.78 42.83 44.65 41.79 44.56 44.22 42.71 44.65 44.97 45.53 45.50 45.45 45.55 44.69
47.64 47.88 47.74 49.36 48.48 47.80 40.63 42.56 45.44 42.96 38.49 37.72 35.75 37.72 37.73 38.96 41.94 43.37 44.56 44.71 43.62 43.31 45.36 47.95 47.44 47.80 47.57 47.60 47.34 46.49 46.23 44.31 41.43 37.80 42.94 42.67 38.09 42.92 44.72 45.72 47.16 46.70 43.09 47.35
47.42 47.74 47.77 48.33 48.34 47.35 45.59 45.01 44.50 39.79 35.57 37.53 36.12 37.34 39.02 38.95 41.09 40.79 43.87 45.78 44.10 46.82 50.29 49.29 48.84 48.04 47.49 48.36 47.63 49.62 45.38 44.17 43.51 39.40 37.28 32.87 43.85 47.61 48.37 46.51 47.35 48.81 48.07 49.01
47.01 47.15 47.34 47.50 48.04 47.66 45.79 46.64 43.74 40.95 36.74 39.04 37.97 37.72 38.23 40.48 42.27 42.20 43.42 46.44 48.46 50.53 46.79 41.12 37.52 37.61 41.10 43.91 46.82 47.15 48.80 45.50 40.21 38.22 36.90 41.52 42.21 43.62 44.72 44.71 45.46 49.50 48.51 49.23
46.69 46.74 46.89 47.03 47.74 47.37 45.43 47.51 48.52 45.54 39.85 38.34 41.17 38.05 39.23 38.33 39.60 40.87 43.83 47.87 52.31 49.73 44.61 41.68 35.08 31.98 35.62 38.94 40.90 43.76 44.71 45.34 44.39 37.17 35.83 34.00 43.62 48.23 49.57 48.26 42.02 50.05 49.71 48.99
46.62 46.39 46.46 47.31 47.38 47.24 45.30 46.45 49.87 45.99 39.75 42.96 43.32 39.55 39.03 42.47 42.34 41.01 43.24 45.14 45.91 48.97 42.20 39.17 37.24 35.96 41.20 36.51 38.11 37.03 38.79 39.54 39.26 39.32 38.99 42.26 47.06 47.55 48.78 40.27 44.05 50.03 50.51 50.26
46.12 46.15 46.31 47.31 47.00 47.05 45.07 44.47 49.80 46.10 42.17 43.07 43.73 44.40 42.56 43.06 43.63 39.99 43.98 43.51 44.92 44.39 39.80 39.53 39.99 39.87 41.06 40.50 43.44 40.80 39.40 38.97 38.63 40.66 38.43 36.48 47.24 45.62 44.71 50.61 50.46 51.17 51.12 51.29
45.75 45.98 46.93 46.99 46.77 47.13 45.88 41.59 48.27 49.72 44.60 40.86 46.26 44.84 46.83 45.96 48.08 46.29 46.77 43.85 44.32 45.67 42.32 44.21 44.42 41.95 40.22 42.29 37.92 44.85 38.96 44.50 43.74 43.40 43.82 50.96 49.13 51.42 51.88 53.21 52.11 50.70 51.54 51.56
46.10 46.77 46.90 46.92 47.25 46.77 45.87 44.29 46.59 45.70 42.76 39.82 39.71 41.33 46.08 48.41 50.14 52.21 43.89 46.46 47.75 47.22 50.53 47.39 46.72 42.66 44.60 40.51 41.84 44.58 44.64 44.32 43.31 43.35 48.51 48.53 50.37 51.71 51.08 51.00 51.49 51.28 51.82 51.75
46.60 46.60 46.69 46.90 47.01 45.82 45.65 44.34 46.97 45.47 42.18 35.45 38.10 47.67 45.24 49.42 50.50 51.02 50.59 49.85 51.27 51.81 50.48 47.80 44.99 44.01 47.41 45.20 46.05 44.11 47.59 44.02 44.87 45.71 49.27 47.45 49.43 50.91 51.76 50.29 49.79 49.22 51.20 51.10
46.72 46.74 47.01 46.78 45.84 45.72 45.77 46.73 46.01 46.40 42.01 36.28 37.82 43.64 46.21 47.65 46.89 47.00 50.69 49.21 49.53 48.30 47.14 42.91 42.51 46.88 45.83 45.50 44.92 44.30 46.67 45.98 43.76 44.99 51.00 50.31 52.06 52.97 52.88 50.54 48.40 49.45 49.52 48.76
45.95 47.03 46.96 45.84 45.18 45.04 41.85 36.61 44.19 48.00 47.28 38.84 33.91 44.70 44.00 46.51 46.63 46.61 47.85 48.95 48.45 48.44 46.68 46.60 47.82 48.01 47.00 42.88 41.94 46.89 49.03 49.90 50.61 48.77 48.61 49.91 48.36 48.42 52.28 49.90 49.32 49.68 48.94 49.23
45.85 45.53 45.13 45.19 44.75 44.60 40.35 38.63 43.71 46.58 47.31 37.96 33.81 37.08 43.73 46.10 46.87 48.26 47.68 49.55 49.05 48.00 46.82 46.27 47.33 46.81 46.91 44.57 41.60 47.49 50.07 50.50 50.01 47.66 46.29 46.17 45.30 46.30 46.14 47.70 47.75 45.96 47.61 46.78
45.39 45.22 44.89 44.81 44.72 44.47 42.85 46.76 46.39 48.61 43.19 41.38 34.82 35.35 39.27 46.34 44.53 42.50 49.10 46.85 46.88 46.10 45.03 45.00 45.44 46.40 44.87 41.50 46.55 48.88 49.33 46.78 46.51 46.51 45.73 44.36 45.39 44.98 44.25 44.25 43.62 42.43 41.57 41.90
45.08 45.42 44.92 44.41 43.41 39.33 40.77 45.78 46.07 48.05 44.85 37.12 35.70 34.11 35.45 44.77 41.54 42.45 41.26 44.54 41.05 45.98 43.01 44.78 45.91 43.23 40.51 43.75 45.00 44.86 45.02 44.26 44.88 42.50 43.80 42.79 42.44 40.78 39.93 40.28 40.77 40.59 38.17 39.27
44.66 43.76 39.42 34.99 40.20 45.65 46.79 43.43 37.94 40.09 42.86 43.07 36.99 39.73 32.78 40.02 40.50 41.11 37.77 37.31 36.35 35.86 40.54 44.94 41.62 42.63 43.34 41.92 42.89 43.82 43.81 42.81 42.81 40.25 38.73 39.41 37.74 38.08 39.30 39.21 40.39 39.28 38.22 38.06
43.10 38.33 36.89 44.54 45.81 45.20 42.69 34.81 34.54 35.67 33.45 39.52 38.99 39.44 34.61 42.13 38.50 38.55 42.22 35.99 34.03 33.86 38.30 40.17 38.70 39.35 38.15 40.09 41.52 42.64 42.08 42.78 42.63 43.16 42.61 42.35 41.92 39.85 37.47 37.27 38.40 38.01 36.68 36.00
43.31 44.62 46.44 46.05 42.18 39.29 33.60 31.96 33.68 33.46 33.16 38.19 36.71 37.90 39.48 41.16 45.30 41.90 39.39 37.47 35.68 33.68 38.39 38.28 35.13 33.18 35.74 37.72 39.12 40.26 41.53 41.42 40.53 41.34 40.29 40.39 39.52 38.99 37.93 36.50 34.01 32.00 31.03 30.63
47.24 42.96 38.94 37.82 34.98 30.77 29.88 29.86 32.22 32.41 33.50 34.98 35.46 35.30 39.29 42.33 43.32 37.34 35.93 33.86 34.41 35.25 33.12 28.37 28.34 32.66 33.77 34.37 35.12 34.89 35.86 36.11 35.61 35.46 34.75 34.18 33.78 33.55 32.31 30.41 30.40 30.49 29.66 29.46
36.25 33.68 29.46 31.33 29.04 29.79 30.26 30.41 32.23 34.59 32.78 33.68 35.31 34.59 35.80 35.31 34.05 32.96 33.86 32.78 33.77 31.14 27.35 25.00 28.17 30.96 32.07 32.91 33.24 32.00 30.66 30.89 30.68 30.33 30.51 29.25 28.50 28.66 29.38 29.68 29.89 29.45 28.57 29.35
31.17 31.94 26.84 27.95 30.20 29.14 29.67 30.59 32.04 32.87 32.90 33.14 34.23 34.35 34.73 32.40 32.05 31.43 32.70 29.96 25.19 25.17 23.16 26.96 28.16 32.01 31.99 31.54 31.09 30.18 29.60 29.29 29.11 28.95 28.12 28.06 28.21 28.14 28.46 29.11 29.04 28.64 27.58 26.43
29.06 25.00 22.92 25.36 26.00 24.08 25.02 25.54 26.66 30.66 30.40 32.40 33.26 32.23 30.35 27.11 26.69 24.05 21.84 23.00 17.95 20.71 22.67 25.41 29.87 30.56 30.32 30.43 30.18 29.83 29.83 29.30 29.00 28.82 28.28 27.83 27.22 26.49 25.98 26.55 26.54 26.32 25.95 25.08
27.12 24.17 25.21 23.42 23.89 22.18 24.03 26.05 26.55 30.62 32.97 29.63 28.28 22.91 22.17 28.23 22.56 18.74 21.17 17.91 20.52 22.35 23.12 24.65 28.46 29.04 29.25 29.86 29.86 29.72 29.59 29.05 28.60 28.09 27.50 27.10 27.48 27.57 26.02 23.86 24.39 24.90 24.76 24.08
MSLP
1004.94 1005.95 1007.07 1008.27 1009.69 1011.25 1012.52 1013.26 1012.87 1012.16 1013.46 1014.86 1013.30 1010.53 1007.56 1007.22 1006.65 1006.54 1006.25 1006.12 1005.62 1005.51 1005.16 1004.96 1004.30 1003.62 1003.73 1004.05 1004.45 1005.19 1005.67 1005.90 1005.79 1005.77 1006.20 1006.19 1005.87 1006.13 1006.68 1006.95 1007.22 1007.60 1007.04 1005.48
1002.96 1004.12 1005.31 1006.58 1008.02 1009.56 1011.07 1011.61 1011.76 1011.92 1012.10 1011.70 1011.77 1009.48 1008.64 1007.51 1006.78 1005.97 1005.97 1005.90 1005.67 1005.50 1005.26 1004.86 1004.21 1003.72 1003.80 1004.32 1004.37 1004.44 1005.69 1005.82 1005.46 1005.71 1006.52 1006.47 1005.88 1006.01 1006.31 1006.76 1007.34 1006.62 1006.36 1005.14
1001.41 1002.25 1003.48 1004.79 1006.31 1007.91 1009.46 1010.63 1010.63 1010.97 1011.29 1009.39 1008.64 1008.27 1007.98 1007.45 1006.97 1006.06 1005.86 1005.65 1005.72 1005.50 1005.24 1004.89 1004.30 1003.97 1004.64 1004.70 1004.48 1004.59 1005.14 1005.22 1005.01 1004.64 1004.56 1004.78 1005.34 1005.36 1005.66 1005.96 1006.01 1005.68 1005.45 1004.55
999.90 1000.72 1001.80 1002.96 1004.46 1006.23 1007.68 1008.18 1007.62 1007.34 1007.39 1008.18 1006.85 1007.21 1006.76 1006.51 1006.20 1006.13 1005.82 1005.67 1005.28 1005.34 1005.28 1004.98 1004.77 1004.79 1005.10 1005.37 1005.46 1005.10 1005.19 1004.74 1005.06 1004.77 1004.57 1004.40 1004.49 1004.42 1004.95 1005.10 1005.07 1004.67 1004.39 1003.79
998.19 999.22 1000.20 1000.73 1002.73 1004.76 1005.86 1005.94 1005.15 1005.85 1005.23 1006.06 1006.23 1005.12 1005.22 1005.38 1005.83 1005.47 1004.73 1004.75 1005.18 1005.36 1005.18 1004.91 1004.93 1005.43 1005.44 1004.80 1005.66 1005.24 1005.15 1004.81 1005.24 1005.05 1004.97 1004.81 1004.21 1004.09 1004.06 1004.27 1004.09 1004.01 1003.86 1003.14
996.39 997.59 998.86 999.70 1000.77 1003.16 1003.84 1005.13 1004.25 1003.84 1003.77 1004.67 1005.37 1004.79 1004.34 1004.94 1005.51 1005.49 1004.94 1004.91 1004.85 1005.14 1005.45 1005.53 1006.05 1006.24 1006.27 1006.19 1005.62 1005.37 1005.31 1005.12 1005.56 1005.11 1005.34 1004.98 1004.13 1003.97 1003.66 1003.59 1003.66 1003.40 1002.82 1002.67
994.56 995.96 997.36 998.95 999.37 1001.35 1002.98 1003.36 1003.30 1003.15 1002.38 1003.51 1003.65 1004.57 1004.79 1004.28 1004.74 1005.45 1005.43 1004.99 1005.06 1005.49 1006.18 1006.18 1006.40 1006.44 1006.40 1005.97 1005.65 1005.59 1005.44 1005.44 1005.73 1005.82 1006.17 1004.58 1003.09 1003.28 1003.02 1002.96 1002.61 1002.55 1002.60 1002.38
992.85 994.56 996.15 997.89 998.54 1000.56 1002.38 1002.54 1002.77 1002.49 1002.53 1002.38 1003.07 1004.06 1004.22 1004.62 1004.94 1005.14 1005.22 1005.41 1005.14 1005.85 1006.27 1006.74 1007.14 1006.73 1006.23 1005.82 1005.71 1005.74 1005.56 1005.53 1005.81 1005.83 1005.20 1003.76 1003.42 1003.39 1003.03 1002.61 1001.62 1001.80 1001.80 1002.14
991.49 993.48 995.30 997.26 998.23 1000.18 1001.69 1002.11 1002.50 1002.92 1002.64 1001.21 1002.33 1003.46 1004.04 1004.13 1004.09 1005.29 1005.16 1005.45 1005.77 1005.98 1006.71 1006.62 1006.23 1005.87 1006.15 1005.57 1005.80 1006.04 1006.05 1006.14 1005.72 1005.88 1004.49 1003.06 1002.18 1001.98 1002.46 1002.56 1000.70 1001.25 1001.71 1002.15
990.89 992.92 994.83 996.64 997.88 999.85 1001.17 1002.04 1002.76 1003.00 1002.50 1001.90 1002.22 1003.01 1003.62 1003.92 1003.62 1004.07 1004.71 1005.60 1005.74 1005.76 1006.18 1006.16 1005.71 1005.27 1004.83 1004.68 1005.17 1005.66 1005.96 1006.02 1005.37 1004.93 1003.88 1002.33 1001.94 1002.04 1002.50 1002.10 1000.82 1001.31 1001.60 1002.23
990.99 992.84 994.35 995.89 997.74 999.76 1000.84 1002.07 1002.66 1002.67 1002.91 1003.02 1003.58 1003.62 1003.82 1003.63 1003.40 1003.25 1003.75 1005.20 1005.35 1005.45 1005.59 1005.49 1004.91 1004.73 1004.61 1003.95 1003.78 1004.14 1004.26 1004.55 1004.61 1004.45 1003.50 1002.14 1002.05 1002.53 1001.33 1000.26 1001.04 1001.28 1001.80 1002.38
991.33 992.89 994.32 996.21 997.97 999.93 1001.09 1002.34 1002.80 1003.12 1003.46 1004.56 1004.41 1004.62 1004.95 1004.62 1002.67 1002.63 1003.20 1002.31 1003.52 1003.90 1004.46 1004.60 1004.10 1004.32 1004.68 1003.75 1003.30 1003.59 1003.66 1003.15 1002.84 1002.69 1001.41 1000.63 1000.84 999.88 1000.05 1000.47 1000.61 1001.35 1001.76 1002.63
991.70 993.00 994.54 996.52 998.30 999.96 1000.90 1002.14 1002.66 1003.12 1003.73 1004.90 1005.28 1004.50 1005.13 1004.90 1004.16 1003.49 1002.81 1002.64 1002.53 1002.98 1003.13 1003.89 1003.96 1003.58 1003.76 1003.21 1002.54 1002.12 1002.65 1003.10 1002.65 1002.12 1000.49 1000.45 1000.39 1000.16 1000.39 1000.73 1000.93 1001.38 1001.91 1002.84
992.33 993.68 995.49 997.21 998.93 1000.43 1001.13 1002.04 1002.73 1002.98 1004.11 1004.71 1004.10 1003.91 1004.17 1004.28 1004.27 1003.75 1003.40 1003.02 1002.85 1003.06 1003.41 1003.36 1003.51 1003.20 1003.14 1002.58 1001.93 1001.69 1001.13 1002.40 1001.56 1000.71 1000.22 1000.72 1000.39 1000.14 1000.10 1000.98 1001.61 1002.01 1002.22 1003.00
993.31 994.86 996.53 998.08 999.58 1000.52 1001.60 1002.78 1003.33 1003.27 1003.52 1004.31 1003.93 1003.54 1003.49 1003.77 1003.78 1003.61 1003.37 1003.29 1002.84 1002.96 1003.22 1003.21 1003.18 1002.70 1003.18 1003.07 1002.36 1000.95 1000.98 1000.55 1000.73 999.60 999.60 999.80 999.37 999.63 1000.17 1000.92 1001.43 1001.97 1002.50 1003.58
994.89 996.17 997.57 998.98 1000.27 1001.09 1002.41 1004.21 1004.21 1003.93 1004.42 1004.78 1004.30 1003.81 1003.01 1002.92 1003.14 1003.25 1003.12 1002.91 1003.00 1002.86 1002.79 1003.02 1002.74 1002.76 1002.91 1002.11 1000.71 999.88 999.70 999.86 999.85 999.67 1000.18 1000.23 1000.64 1001.37 1000.51 1001.22 1001.98 1002.57 1003.19 1003.90
996.30 997.54 998.90 1000.08 1001.06 1001.94 1002.95 1003.15 1003.29 1004.07 1005.08 1005.13 1004.58 1003.06 1002.56 1002.71 1002.67 1002.75 1002.82 1002.68 1002.77 1003.10 1003.45 1002.79 1002.50 1002.74 1002.78 1001.82 1000.11 999.29 999.26 999.54 999.83 1000.48 1000.85 1001.00 1000.93 1001.27 1002.01 1001.69 1002.98 1003.74 1003.99 1005.01
997.95 999.11 1000.26 1001.19 1002.00 1002.58 1002.82 1003.08 1003.31 1003.75 1004.62 1004.89 1004.32 1003.36 1002.72 1001.98 1001.39 1001.59 1002.04 1002.34 1002.98 1003.03 1002.94 1003.08 1002.51 1002.85 1002.92 1001.39 1000.42 1000.03 999.88 1000.31 1000.73 1000.96 1001.28 1001.55 1001.82 1002.56 1003.21 1002.70 1003.52 1004.80 1005.30 1006.19
999.54 1000.49 1001.46 1002.19 1002.50 1002.89 1003.10 1003.22 1003.55 1003.44 1003.96 1003.62 1003.66 1003.05 1002.31 1001.71 1001.83 1001.97 1002.48 1002.54 1002.70 1002.73 1002.42 1002.30 1002.34 1002.46 1001.88 1001.29 1001.17 1000.94 1001.17 1001.39 1001.48 1002.00 1002.21 1002.23 1002.20 1003.80 1004.81 1004.77 1005.34 1005.42 1006.93 1007.39
1000.48 1001.16 1001.83 1002.46 1002.76 1002.84 1002.91 1004.04 1004.19 1003.83 1002.82 1002.32 1002.24 1002.57 1002.54 1002.64 1002.09 1002.04 1002.52 1002.48 1002.64 1002.72 1002.66 1002.65 1002.26 1001.70 1002.51 1002.91 1002.84 1002.60 1002.46 1002.56 1002.76 1002.92 1003.30 1003.57 1003.19 1003.73 1004.88 1004.93 1006.39 1007.50 1007.81 1009.03
1000.69 1001.24 1001.71 1001.90 1002.24 1002.65 1002.47 1003.07 1003.53 1003.44 1002.98 1002.36 1001.92 1001.90 1002.78 1002.88 1001.96 1001.68 1002.33 1002.14 1002.82 1002.58 1002.35 1002.35 1002.57 1002.98 1004.24 1004.45 1004.08 1003.80 1003.72 1003.68 1003.63 1003.50 1003.55 1003.77 1003.89 1004.67 1005.55 1006.81 1006.95 1008.38 1009.16 1010.39
1000.94 1000.71 1001.33 1002.28 1002.37 1002.31 1002.76 1002.93 1003.12 1002.74 1001.79 1001.71 1001.70 1001.76 1001.88 1002.20 1001.57 1001.53 1002.49 1002.55 1002.98 1002.47 1002.33 1003.01 1004.06 1006.04 1006.41 1006.04 1005.62 1005.28 1005.15 1004.96 1004.77 1004.65 1004.81 1005.10 1005.50 1006.12 1007.33 1007.79 1008.74 1009.42 1010.45 1012.13
1000.78 1000.84 1001.69 1002.43 1002.96 1002.88 1002.93 1002.62 1002.52 1002.43 1002.35 1002.47 1002.46 1002.33 1002.07 1002.26 1001.86 1002.34 1003.09 1003.43 1003.68 1003.40 1003.79 1005.52 1007.69 1008.09 1007.89 1007.61 1007.31 1007.30 1007.02 1006.70 1006.66 1006.61 1006.84 1007.40 1008.02 1008.62 1009.70 1009.89 1010.77 1010.95 1012.25 1013.45
1002.20 1002.52 1003.12 1003.57 1003.82 1003.98 1003.66 1003.83 1003.88 1003.57 1003.25 1002.74 1002.46 1002.62 1002.60 1002.85 1003.11 1003.48 1004.02 1004.57 1004.61 1005.29 1006.61 1008.40 1009.39 1009.34 1009.22 1009.12 1008.92 1008.67 1008.70 1008.60 1008.59 1008.83 1008.99 1009.45 1010.08 1010.59 1011.23 1011.28 1011.76 1012.82 1013.90 1014.89
1004.18 1004.42 1005.11 1005.56 1005.94 1006.02 1005.67 1004.86 1003.90 1004.02 1003.86 1003.43 1003.03 1003.19 1003.26 1003.78 1004.67 1005.49 1005.48 1006.19 1007.86 1009.44 1010.83 1011.43 1011.37 1010.81 1010.72 1010.66 1010.51 1010.34 1010.29 1010.25 1010.47 1010.88 1010.86 1011.59 1012.14 1012.62 1013.05 1013.69 1014.22 1014.68 1015.49 1016.53
1006.45 1007.66 1007.67 1007.71 1007.37 1007.34 1006.92 1006.36 1005.83 1005.08 1004.34 1003.83 1003.87 1004.37 1005.12 1006.36 1007.25 1007.97 1009.18 1009.89 1012.15 1013.47 1014.01 1013.66 1012.78 1012.54 1012.40 1012.19 1012.08 1011.86 1011.90 1011.90 1011.84 1012.27 1013.06 1013.64 1013.78 1014.23 1014.98 1015.54 1016.10 1016.91 1017.54 1018.11
1008.12 1009.38 1010.05 1009.79 1009.45 1009.13 1008.39 1007.65 1006.73 1005.76 1004.95 1005.00 1005.48 1006.72 1008.46 1008.89 1009.94 1011.90 1013.18 1014.38 1015.32 1015.72 1015.71 1015.38 1014.58 1014.15 1013.86 1013.69 1013.50 1013.30 1013.28 1013.36 1013.80 1014.32 1014.87 1015.21 1015.69 1015.99 1016.42 1017.15 1018.17 1018.72 1019.20 1019.59
Wind_Speed
32 32 32 33 31 28 21 9 9 13 16 12 7 18 32 7 21 15 10 7 5 8 12 15 15 21 16 18 18 20 15 9 9 14 5 3 6 9 10 6 7 3 5 8
34 33 34 35 35 35 14 9 4 15 16 16 14 30 29 25 18 25 13 11 9 5 5 8 17 15 14 13 20 20 13 10 11 11 6 5 8 10 10 6 2 11 7 5
31 32 35 37 38 38 15 7 8 6 12 18 30 28 25 31 22 21 18 11 7 9 7 8 3 12 7 11 18 5 16 13 16 12 12 8 8 13 14 14 7 9 11 13
31 31 36 39 41 41 16 9 8 10 18 19 29 27 24 25 24 26 18 19 15 13 6 5 6 5 7 6 6 8 11 15 16 15 16 15 17 15 14 16 16 13 12 14
33 33 29 42 43 42 12 8 9 15 16 29 32 29 27 29 32 23 24 19 23 13 13 5 2 4 1 5 6 9 8 11 10 11 12 13 15 16 16 18 17 13 17 17
36 36 36 36 46 37 7 7 12 14 16 28 23 24 32 28 25 31 22 23 15 20 20 3 7 6 8 8 2 10 8 8 7 14 10 9 11 14 16 15 14 16 17 16
37 37 36 36 45 39 8 13 6 10 12 17 22 31 31 30 24 26 20 18 18 6 7 6 5 7 5 8 14 10 6 9 6 5 5 10 11 3 16 18 18 17 16 17
39 37 37 34 44 44 12 9 9 10 10 18 22 29 31 23 19 22 23 10 12 7 3 4 6 4 7 6 7 12 12 8 5 5 9 9 6 7 10 12 18 15 18 17
39 37 37 34 44 44 11 10 9 5 13 16 23 20 22 21 19 18 22 10 6 9 4 6 8 9 11 8 5 2 6 7 8 4 8 10 9 13 10 4 18 9 11 14
35 35 34 36 43 43 13 8 10 6 9 9 12 15 18 21 17 16 16 16 8 8 5 5 7 9 10 14 7 6 5 4 11 10 7 6 3 10 12 10 13 3 8 10
33 33 32 41 42 40 15 6 9 8 4 5 3 2 15 17 18 15 15 14 10 8 10 8 7 5 7 11 9 8 10 10 6 7 7 10 12 11 12 11 2 6 8 10
31 30 37 40 39 33 14 7 6 5 3 4 5 3 9 9 19 15 16 11 17 8 8 6 4 2 2 7 10 5 5 7 5 10 7 4 21 14 17 7 6 7 9 11
28 34 39 37 37 27 11 7 9 6 4 1 3 3 2 9 12 12 10 11 10 15 7 5 4 5 6 5 10 10 6 5 5 3 9 12 13 15 6 11 9 6 8 14
31 33 34 34 30 23 15 8 6 6 4 3 5 4 2 7 12 12 10 7 7 3 7 6 4 4 7 6 8 7 7 9 7 7 12 4 11 15 15 10 7 7 10 17
34 33 33 32 28 22 13 7 3 4 2 1 5 6 11 12 11 13 11 14 9 8 5 4 5 4 3 1 2 5 8 8 7 7 10 9 15 6 14 14 15 13 15 17
28 27 31 31 27 20 9 3 4 2 1 3 2 5 5 7 9 10 13 13 11 7 6 5 4 4 5 7 13 13 16 12 13 8 2 6 2 6 9 14 11 12 14 15
31 33 31 28 22 10 4 2 4 12 6 3 4 3 3 9 8 7 7 10 10 10 8 6 8 4 4 3 9 8 14 16 13 5 5 5 7 5 9 10 8 9 10 11
30 29 25 23 16 5 0 2 11 13 5 4 4 4 5 8 4 3 5 8 7 8 5 1 8 3 3 7 8 13 11 4 7 8 3 2 3 4 4 12 15 13 14 14
25 26 22 8 2 2 2 2 9 2 4 5 4 3 0 3 2 2 2 2 5 3 6 7 6 6 10 1 5 4 4 4 5 4 5 6 8 6 6 7 8 13 12 13
29 13 4 2 3 6 12 6 3 3 3 3 3 5 2 4 3 2 4 1 4 5 4 6 5 7 5 5 6 7 5 3 6 4 3 4 8 13 12 12 9 9 13 14
4 3 2 2 11 7 1 4 4 4 3 5 3 5 4 3 2 3 1 3 2 4 4 7 5 4 6 10 7 5 3 1 1 2 1 5 7 11 13 11 13 13 14 13
2 4 8 4 4 3 3 4 3 4 2 4 5 3 7 4 4 2 1 1 1 2 4 4 4 4 10 9 7 6 5 4 6 6 7 7 9 10 12 13 15 15 17 16
1 3 4 2 1 4 4 6 4 3 0 1 3 3 1 3 1 4 2 3 1 1 3 4 5 8 8 8 7 8 9 9 10 13 14 14 13 13 12 14 13 16 15 13
4 2 4 4 3 5 3 5 1 2 3 1 1 3 2 1 2 3 1 2 2 3 5 5 7 14 9 8 6 7 10 11 13 13 15 16 15 14 12 13 13 14 14 13
6 5 5 6 4 5 6 8 6 4 3 2 2 3 3 5 5 4 2 4 6 7 5 7 11 11 9 8 8 8 9 10 12 11 14 15 14 14 16 14 14 15 14 13
4 8 6 8 5 7 7 5 4 4 4 1 3 4 4 6 4 5 8 5 6 5 6 9 10 9 9 10 10 11 11 12 14 15 15 15 16 16 16 16 15 14 13 13
6 5 8 8 3 6 7 7 6 4 1 4 4 8 8 3 6 6 6 5 5 7 7 8 12 11 11 11 12 13 15 16 16 16 16 16 15 15 15 17 14 14 14 13
Wind_Direction
220 215 209 199 191 183 177 179 212 165 158 179 228 225 214 205 208 207 219 236 220 226 192 210 214 212 211 196 187 198 207 230 197 202 106 323 264 233 216 242 217 262 293 264
218 211 205 196 186 178 169 189 149 170 177 183 213 234 227 228 212 209 199 208 215 190 227 215 218 212 198 180 189 200 172 217 207 190 177 184 219 206 230 241 250 235 247 261
217 208 203 193 183 179 174 167 166 169 200 213 199 216 224 214 222 214 213 208 203 195 220 225 215 222 171 192 206 167 180 216 221 225 222 204 202 215 212 214 220 243 230 263
217 209 202 190 182 180 174 183 183 186 184 203 209 208 209 214 204 217 211 215 214 203 201 196 208 218 171 163 177 190 201 226 228 244 250 248 239 232 209 215 230 243 250 263
213 207 213 187 179 177 185 175 180 175 178 199 216 196 214 210 208 195 208 216 203 212 219 207 158 135 225 196 179 193 199 220 209 228 234 232 237 237 239 225 244 249 263 267
209 204 200 201 175 173 168 185 227 188 206 196 202 215 197 220 207 220 219 207 205 213 231 270 330 297 280 292 266 198 195 207 197 238 223 226 243 232 230 226 219 232 252 269
204 201 195 197 176 176 176 183 186 200 198 191 203 211 209 204 210 215 221 221 216 182 111 64 321 319 343 269 240 224 192 197 197 224 190 226 252 225 227 232 237 233 254 268
198 195 190 193 176 173 186 174 191 201 215 194 197 211 206 204 210 215 210 214 223 133 159 201 255 304 302 255 239 216 219 183 173 180 213 261 174 182 186 200 247 237 253 267
187 187 184 185 172 174 178 180 192 226 201 211 203 190 208 197 192 197 211 219 146 131 151 189 207 206 202 249 183 172 194 251 232 173 221 230 244 195 195 191 270 255 246 257
175 179 175 180 171 172 171 167 190 203 210 217 200 197 196 197 187 191 184 201 192 192 166 198 210 217 208 207 215 175 164 189 208 212 239 242 188 159 158 204 258 170 221 230
169 167 171 170 170 171 167 145 195 188 199 130 120 2 214 189 205 184 172 181 202 184 188 207 193 196 213 217 215 177 181 175 178 207 223 239 150 146 205 229 174 208 205 202
161 166 166 166 167 165 144 141 169 134 91 57 22 60 294 299 197 183 175 187 173 182 188 204 205 156 166 210 217 182 214 226 200 212 213 189 183 219 215 202 203 196 198 182
160 163 158 162 162 160 139 132 148 154 154 96 330 193 357 284 270 273 190 206 188 195 199 159 211 202 161 190 224 219 215 171 221 184 230 230 218 223 222 205 202 190 197 179
151 148 153 156 150 142 128 131 149 133 118 210 260 173 195 249 241 254 249 286 183 243 198 219 201 193 206 216 244 215 227 156 206 237 261 276 246 235 217 201 202 190 183 176
140 145 147 139 134 117 95 91 108 142 167 174 226 235 229 259 269 268 241 225 224 210 181 178 217 232 223 234 263 226 187 193 203 226 232 222 262 281 207 208 201 186 170 173
132 133 136 127 126 120 82 83 281 160 347 62 308 348 241 228 220 245 223 215 224 226 226 226 240 143 219 217 233 231 212 215 223 246 153 231 31 296 188 209 197 186 185 181
115 108 111 114 115 117 132 121 118 154 151 167 272 247 208 215 221 206 199 208 204 215 226 237 223 194 222 249 252 239 232 226 221 201 152 236 187 246 189 157 164 158 161 161
110 114 124 129 126 85 355 5 170 145 159 171 238 244 249 196 167 136 180 178 181 198 203 301 230 161 225 246 253 247 242 215 218 206 188 355 62 128 172 146 144 154 151 149
124 122 115 93 69 100 260 92 140 149 205 193 192 235 203 315 68 110 116 149 177 117 194 208 183 190 222 241 256 305 304 254 275 174 198 142 129 129 157 140 158 149 147 147
117 120 93 122 193 140 144 118 164 217 262 237 234 142 289 319 197 125 126 23 151 164 203 150 215 228 73 16 325 301 282 214 164 177 227 191 135 153 166 149 149 146 140 136
135 98 129 112 139 181 205 135 186 169 211 205 229 176 181 286 264 122 243 143 86 196 176 191 186 207 7 347 348 7 25 157 301 293 230 174 163 153 139 146 131 136 137 135
259 118 102 130 197 186 180 195 172 217 244 153 138 205 189 202 233 131 80 119 198 205 129 165 132 40 354 351 1 15 17 37 55 58 80 93 117 130 143 134 126 118 111 118
145 76 82 208 134 206 213 197 178 201 89 129 163 161 139 169 23 71 95 205 170 287 46 69 45 334 345 350 9 21 36 60 77 79 79 79 83 87 105 105 103 106 106 109
58 55 84 357 38 10 346 315 8 17 282 308 130 103 111 133 92 61 194 49 11 64 52 48 355 343 343 0 18 52 48 55 68 72 77 77 78 80 80 85 90 98 96 95
36 349 37 51 32 10 334 329 332 0 313 282 99 71 44 39 69 19 21 62 65 37 25 352 328 349 4 23 39 53 61 69 73 76 76 75 81 81 77 75 81 83 83 81
62 38 356 353 13 349 351 340 306 301 320 63 42 76 79 52 39 52 19 60 47 14 336 328 331 20 31 44 52 63 68 69 73 72 78 77 72 75 77 69 67 71 81 88
37 48 28 1 342 323 319 313 309 269 255 59 61 51 45 45 58 53 19 41 10 337 356 357 16 37 44 50 55 58 65 67 69 72 69 71 72 73 73 75 74 79 79 82